| time (UTC) | temp F | wind direction | speed knots | gust knots | rain 1hr in | rain 24hr in | rain mn in | humidity % | barometer mb |
| 20260905201539 | 81 | 305 | 0.0 | 0.0 | 0.00 | 0.04 | 0.02 | 23 | 1008.3 |
| 20260905200038 | 80 | 317 | 0.0 | 0.0 | 0.00 | 0.04 | 0.02 | 1 | 1008.1 |
| 20260905183022 | 76 | 269 | 0.0 | 0.0 | 0.02 | 0.04 | 0.02 | 37 | 1008.7 |
| 20260905181519 | 79 | 269 | 0.0 | 0.9 | 0.01 | 0.03 | 0.01 | 71 | 1008.9 |
| 20260905180014 | 88 | 355 | 0.9 | 8.7 | 0.00 | 0.02 | 0.00 | 55 | 1009.0 |
| 20260905174512 | 95 | 298 | 0.0 | 0.0 | 0.00 | 0.02 | 0.00 | 49 | 1008.0 |
| 20260905173006 | 96 | 275 | 0.0 | 0.0 | 0.00 | 0.02 | 0.00 | 50 | 1008.1 |
| 20260905171501 | 96 | 329 | 0.0 | 0.0 | 0.00 | 0.02 | 0.00 | 49 | 1008.6 |
| 20260905170058 | 95 | 293 | 0.0 | 0.0 | 0.00 | 0.02 | 0.00 | 51 | 1009.1 |
| 20260905164557 | 95 | 313 | 0.0 | 0.0 | 0.00 | 0.02 | 0.00 | 54 | 1009.3 |
| 20260905163047 | 95 | 323 | 0.0 | 0.0 | 0.00 | 0.02 | 0.00 | 52 | 1009.4 |
| 20260905161544 | 93 | 321 | 0.0 | 0.0 | 0.00 | 0.02 | 0.00 | 55 | 1009.6 |
| 20260905160052 | 92 | 306 | 0.0 | 0.0 | 0.00 | 0.02 | 0.00 | 56 | 1009.7 |
| 20260905154540 | 92 | 15 | 0.0 | 0.0 | 0.00 | 0.02 | 0.00 | 55 | 1009.9 |
| 20260905153034 | 93 | 340 | 0.0 | 0.0 | 0.00 | 0.02 | 0.00 | 56 | 1009.9 |
| 20260905151526 | 92 | 309 | 0.0 | 0.0 | 0.00 | 0.02 | 0.00 | 57 | 1009.9 |
| 20260905150021 | 92 | 323 | 0.0 | 0.0 | 0.00 | 0.02 | 0.00 | 60 | 1010.1 |
| 20260905144527 | 90 | 300 | 0.0 | 0.0 | 0.00 | 0.02 | 0.00 | 60 | 1010.2 |
| 20260905143012 | 88 | 281 | 0.0 | 0.0 | 0.00 | 0.02 | 0.00 | 63 | 1010.2 |
| 20260905141512 | 87 | 329 | 0.0 | 0.0 | 0.00 | 0.02 | 0.00 | 63 | 1010.1 |
| 20260905140002 | 86 | 293 | 0.0 | 0.9 | 0.00 | 0.02 | 0.00 | 65 | 1010.2 |
| 20260905134604 | 85 | 302 | 0.0 | 0.0 | 0.00 | 0.02 | 0.00 | 67 | 1010.3 |
| 20260905133053 | 84 | 329 | 0.0 | 0.0 | 0.00 | 0.02 | 0.00 | 67 | 1010.2 |
| 20260905131549 | 82 | 5 | 0.0 | 0.0 | 0.00 | 0.02 | 0.00 | 61 | 1010.3 |
| 20260905130045 | 79 | 117 | 0.0 | 0.0 | 0.00 | 0.02 | 0.00 | 30 | 1010.4 |
| 20260905124544 | 76 | 117 | 0.0 | 0.0 | 0.00 | 0.02 | 0.00 | 1 | 1010.5 |
| 20260905123036 | 74 | 117 | 0.0 | 0.0 | 0.00 | 0.02 | 0.00 | 1 | 1010.3 |
| 20260905121531 | 72 | 117 | 0.0 | 0.0 | 0.00 | 0.02 | 0.00 | 1 | 1010.5 |
| 20260905120038 | 71 | 117 | 0.0 | 0.0 | 0.00 | 0.02 | 0.00 | 1 | 1010.4 |
| 20260905114523 | 70 | 117 | 0.0 | 0.0 | 0.00 | 0.02 | 0.00 | 1 | 1010.4 |
| 20260905113018 | 70 | 117 | 0.0 | 0.0 | 0.00 | 0.02 | 0.00 | 1 | 1010.1 |
| 20260905111516 | 70 | 117 | 0.0 | 0.0 | 0.00 | 0.02 | 0.00 | 1 | 1010.0 |
| 20260905110017 | 70 | 117 | 0.0 | 0.0 | 0.00 | 0.02 | 0.00 | 1 | 1010.0 |
| 20260905104509 | 70 | 117 | 0.0 | 0.0 | 0.00 | 0.02 | 0.00 | 1 | 1009.8 |
| 20260905103002 | 70 | 117 | 0.0 | 0.0 | 0.00 | 0.02 | 0.00 | 1 | 1009.7 |
| 20260905101557 | 70 | 117 | 0.0 | 0.0 | 0.00 | 0.02 | 0.00 | 1 | 1009.7 |
| 20260905100058 | 70 | 117 | 0.0 | 0.0 | 0.00 | 0.02 | 0.00 | 1 | 1009.7 |
| 20260905094549 | 70 | 117 | 0.0 | 0.0 | 0.00 | 0.02 | 0.00 | 1 | 1009.6 |
| 20260905093053 | 71 | 117 | 0.0 | 0.0 | 0.00 | 0.02 | 0.00 | 1 | 1009.7 |
| 20260905091539 | 71 | 117 | 0.0 | 0.0 | 0.00 | 0.02 | 0.00 | 1 | 1009.8 |
| 20260905090036 | 71 | 117 | 0.0 | 0.0 | 0.00 | 0.02 | 0.00 | 1 | 1009.8 |
| 20260905084533 | 71 | 117 | 0.0 | 0.0 | 0.00 | 0.02 | 0.00 | 1 | 1009.9 |
| 20260905083026 | 71 | 117 | 0.0 | 0.0 | 0.00 | 0.02 | 0.00 | 1 | 1009.9 |
| 20260905081522 | 71 | 117 | 0.0 | 0.0 | 0.00 | 0.02 | 0.00 | 1 | 1010.0 |
| 20260905080027 | 72 | 117 | 0.0 | 0.0 | 0.00 | 0.02 | 0.00 | 1 | 1010.1 |
| 20260905074514 | 72 | 117 | 0.0 | 0.0 | 0.00 | 0.02 | 0.00 | 1 | 1010.3 |
| 20260905073009 | 72 | 117 | 0.0 | 0.0 | 0.00 | 0.02 | 0.00 | 1 | 1010.4 |
| 20260905071505 | 72 | 117 | 0.0 | 0.0 | 0.00 | 0.02 | 0.00 | 1 | 1010.6 |
| 20260905064614 | 72 | 117 | 0.0 | 0.0 | 0.00 | 0.02 | 0.00 | 1 | 1011.1 |
| 20260905063051 | 73 | 117 | 0.0 | 0.0 | 0.00 | 0.02 | 0.00 | 1 | 1011.1 |
| 20260905061547 | 73 | 117 | 0.0 | 0.0 | 0.00 | 0.02 | 0.00 | 1 | 1012.0 |
| 20260905060043 | 73 | 117 | 0.0 | 0.0 | 0.00 | 0.02 | 0.00 | 1 | 1011.8 |
| 20260905054547 | 73 | 117 | 0.0 | 0.0 | 0.00 | 0.02 | 0.00 | 1 | 1011.9 |
| 20260905053037 | 74 | 117 | 0.0 | 0.0 | 0.00 | 0.02 | 0.00 | 1 | 1012.2 |
| 20260905051541 | 74 | 117 | 0.0 | 0.0 | 0.00 | 0.02 | 0.00 | 1 | 1012.4 |
| 20260905050026 | 74 | 117 | 0.0 | 0.0 | 0.00 | 0.02 | 0.00 | 1 | 1012.3 |
| 20260905044521 | 74 | 117 | 0.0 | 0.0 | 0.00 | 0.02 | 0.00 | 1 | 1012.7 |
| 20260905043016 | 74 | 117 | 0.0 | 0.0 | 0.00 | 0.02 | 0.00 | 1 | 1012.9 |
| 20260905041612 | 74 | 117 | 0.0 | 0.0 | 0.00 | 0.02 | 0.00 | 1 | 1013.0 |
| 20260905040015 | 74 | 117 | 0.0 | 0.0 | 0.01 | 0.02 | 0.00 | 1 | 1012.9 |
| 20260905034506 | 75 | 117 | 0.0 | 0.0 | 0.01 | 0.02 | 0.02 | 1 | 1012.7 |
| 20260905033059 | 75 | 113 | 0.0 | 0.0 | 0.01 | 0.02 | 0.02 | 3 | 1012.5 |
| 20260905031556 | 75 | 256 | 0.0 | 0.0 | 0.01 | 0.02 | 0.02 | 19 | 1011.8 |
| 20260905024550 | 75 | 256 | 0.0 | 0.0 | 0.00 | 0.01 | 0.01 | 26 | 1011.6 |
| 20260905023042 | 75 | 256 | 0.0 | 0.0 | 0.00 | 0.01 | 0.01 | 32 | 1011.3 |
| 20260905021541 | 75 | 256 | 0.0 | 0.0 | 0.00 | 0.01 | 0.01 | 35 | 1011.4 |
| 20260905020033 | 76 | 256 | 0.0 | 0.0 | 0.00 | 0.01 | 0.01 | 39 | 1011.7 |
| 20260905014535 | 76 | 256 | 0.0 | 0.0 | 0.00 | 0.01 | 0.01 | 42 | 1011.5 |
| 20260905013025 | 76 | 256 | 0.0 | 0.0 | 0.00 | 0.01 | 0.01 | 46 | 1010.9 |
| 20260905011520 | 76 | 256 | 0.0 | 0.0 | 0.00 | 0.01 | 0.01 | 47 | 1010.8 |
| 20260905010018 | 76 | 172 | 0.0 | 0.0 | 0.00 | 0.01 | 0.01 | 51 | 1010.6 |
| 20260905004512 | 77 | 172 | 0.0 | 0.0 | 0.00 | 0.01 | 0.01 | 51 | 1010.6 |
| 20260905003009 | 77 | 172 | 0.0 | 0.0 | 0.00 | 0.01 | 0.01 | 54 | 1010.6 |
| 20260905001503 | 77 | 172 | 0.0 | 0.0 | 0.00 | 0.01 | 0.01 | 53 | 1011.0 |
| 20260905000105 | 78 | 172 | 0.0 | 0.0 | 0.00 | 0.01 | 0.01 | 53 | 1011.3 |
| 20260904234604 | 78 | 172 | 0.0 | 0.0 | 0.00 | 0.01 | 0.01 | 58 | 1011.7 |
| 20260904233052 | 78 | 169 | 0.0 | 2.6 | 0.00 | 0.01 | 0.01 | 58 | 1011.7 |
| 20260904231545 | 78 | 125 | 0.0 | 0.0 | 0.00 | 0.01 | 0.01 | 54 | 1011.7 |
| 20260904230041 | 79 | 161 | 0.0 | 0.0 | 0.00 | 0.01 | 0.01 | 53 | 1011.8 |
| 20260904224537 | 79 | 153 | 0.0 | 0.9 | 0.01 | 0.01 | 0.01 | 63 | 1011.7 |
| 20260904223043 | 81 | 115 | 0.0 | 0.0 | 0.01 | 0.01 | 0.01 | 63 | 1012.2 |
| 20260904221542 | 82 | 110 | 0.0 | 0.0 | 0.01 | 0.01 | 0.01 | 69 | 1011.3 |
| 20260904220024 | 85 | 163 | 0.0 | 0.0 | 0.01 | 0.01 | 0.01 | 68 | 1010.8 |
| 20260904214521 | 86 | 137 | 0.0 | 0.0 | 0.00 | 0.00 | 0.00 | 64 | 1010.6 |
| 20260904213018 | 87 | 129 | 0.0 | 0.0 | 0.00 | 0.00 | 0.00 | 61 | 1010.4 |
| 20260904211511 | 88 | 171 | 0.0 | 0.0 | 0.00 | 0.00 | 0.00 | 58 | 1010.3 |
| 20260904210007 | 89 | 134 | 0.0 | 0.0 | 0.00 | 0.00 | 0.00 | 54 | 1010.3 |
| 20260904204504 | 93 | 171 | 0.0 | 4.3 | 0.00 | 0.00 | 0.00 | 50 | 1010.0 |
| 20260904203057 | 97 | 28 | 0.0 | 0.0 | 0.00 | 0.00 | 0.00 | 46 | 1009.9 |